Regional Weather Roundup
Issued by NWS Binghamton, NY

Home | Current Version | Previous Version | Text Only | Print | Product List | Glossary On
Versions: 1 2 3 4 5 6 7 8 9 10 11 12 13 14 15 16 17 18 19 20 21 22 23 24 25 26 27 28 29 30 31 32 33 34 35 36 37 38 39 40 41 42 43 44 45 46 47 48 49 50
000
ASUS41 KBGM 011610
RWRBGM

REGIONAL WEATHER ROUNDUP
NATIONAL WEATHER SERVICE BINGHAMTON NY
1200 PM EDT SUN MAY 01 2016

Note: "fair" indicates few or no clouds below 12,000 feet with no
significant weather and/or obstructions to visibility.

* = Station(s) that does not report precipitation, such as rain,
snow, etc, also no thunder or fog.

NYZ009-015>018-022>025-036-037-044>046-055>057-062-011700
...Central New York...

CITY           SKY/WX    TMP DP  RH WIND       PRES   REMARKS
Binghamton     LGT RAIN  39  39 100 SE9       30.05S FOG     WCI  33
Cortland       DRIZZLE   43  41  93 SE9       30.05F
Dansville      CLOUDY    56  50  80 SE12      29.94F
Elmira         CLOUDY    48  43  82 SE8       30.02F
Ithaca         CLOUDY    43  40  89 SE13      30.04F
Hamilton       CLOUDY    45  41  87 S12G20    30.07F
Hornell        CLOUDY    54  50  87 S9        29.98F
Monticello     CLOUDY    39  39 100 SE16G23   30.15F WCI  30
Norwich        DRIZZLE   41  39  93 S7        30.10S
Penn Yan       CLOUDY    50  46  86 SE13      29.99F
Rome           LGT RAIN  47  46  97 SE10      30.11F FOG
Sidney         LGT RAIN  43  41  93 N5        30.08F
Syracuse       DRIZZLE   45  44  97 SE10      30.06S FOG
$$

PAZ038>040-043-044-047-048-072-011700
...Northeast Pennsylvania...

CITY           SKY/WX    TMP DP  RH WIND       PRES   REMARKS
Hazleton       RAIN      41  39  93 SE8       30.11F
Scranton       LGT RAIN  45  39  79 VRB5      30.09F
$$
&&
KEY
WCI = Wind Chill Index
VSB = Visibility
HX  = Heat Index
$$



USA.gov is the U.S. government's official web portal to all federal, state and local government web resources and services.